Location: Unspecified
(0.0000°N, 0.0000°E)
Time: 12:09:59
(UTC+00:00)

A-11 Canister half - Visible Passes

Search period start: 23 January 2021 00:00
Search period end: 02 February 2021 00:00
Orbit: 1524 x 1684 km, 47.3° (Epoch: 22 January)

Date Brightness Start Highest point End Pass type
(mag) Time Alt. Az. Time Alt. Az. Time Alt. Az.
23 Jan 11.2 02:02:04 12° S 02:02:04 12° S 02:02:51 10° S visible
24 Jan 11.3 01:41:22 10° S 01:41:22 10° S 01:41:30 10° S visible
29 Jan 10.9 21:09:12 10° NNW 21:10:00 13° NNW 21:10:00 13° NNW visible
30 Jan 10.4 20:47:39 10° NNW 20:50:33 21° NNW 20:50:33 21° NNW visible
31 Jan 9.9 20:26:07 10° NNW 20:31:19 32° N 20:31:19 32° N visible
01 Feb 9.4 20:04:36 10° NNW 20:12:22 41° NNE 20:12:22 41° NNE visible
01 Feb 11.0 22:09:26 10° WNW 22:10:48 15° WNW 22:10:48 15° WNW visible
